Regional Weather Roundup
Issued by NWS

Home | Current Version | Previous Version | Graphics & Text | Print | Product List | Glossary On
Versions: 1 2 3 4 5 6 7 8 9 10 11 12 13 14 15 16 17 18 19 20 21 22 23 24 25 26 27 28 29 30 31 32 33 34 35 36 37 38 39 40 41 42 43 44 45 46 47 48 49 50
000
ASUS43 KDMX 282007
RWRIA

WEATHER ROUNDUP FOR IOWA
NATIONAL WEATHER SERVICE DES MOINES IA
200 PM CST FRI NOV 28 2014

NOTE: "FAIR" INDICATES FEW OR NO CLOUDS BELOW 12,000 FEET WITH NO
SIGNIFICANT WEATHER AND/OR OBSTRUCTIONS TO VISIBILITY.

* - THESE STATIONS ARE NOT NWS STATIONS...THUS NOT UNDER NWS
QUALITY CONTROL.  THEY ALSO DO NOT REPORT WEATHER SUCH
AS PRECIPITATION OR FOG.

IAZ001>003-012>014-020>022-031>034-043>046-282100-
   NORTHWEST IOWA

CITY           SKY/WX    TMP DP  RH WIND       PRES   REMARKS
CARROLL *      SUNNY     39  32  75 S9        29.74F WCI  33
CHEROKEE *     MOSUNNY   36  30  80 E6        29.72F WCI  31
DENISON *      SUNNY     45  32  61 S10       29.70F
LE MARS *      SUNNY     37  30  75 SE7G13    29.70F WCI  32
ORANGE CITY *  MOSUNNY   37  28  70 SE7       29.70F WCI  32
SHELDON *      SUNNY     32  27  80 SE14      29.70F WCI  22
SIOUX CITY     SUNNY     46  30  53 SE12      29.69F
SPENCER        PTSUNNY   30  24  78 SE12      29.74F WCI  20
STORM LAKE *   SUNNY     34  28  80 SE13      29.73F WCI  25
$$

IAZ055>058-069>071-079>083-090>094-282100-
   SOUTHWEST IOWA

CITY           SKY/WX    TMP DP  RH WIND       PRES   REMARKS
ATLANTIC *     SUNNY     41  34  75 S7        29.75S
AUDUBON *      SUNNY     41  28  60 S7        29.76F
CLARINDA *     SUNNY     50  32  50 SE10G17   29.78F
COUNCIL BLFS * SUNNY     50  32  50 S13       29.71F
CRESTON *      SUNNY     45  34  65 S13       29.77F
HARLAN  *      SUNNY     46  36  66 S9        29.75F
LAMONI         MOSUNNY   48  31  51 S15       29.79F
RED OAK *      SUNNY     50  32  50 S12       29.75F
SHENANDOAH *   SUNNY     52  32  46 S13       29.76F
$$

IAZ047>049-059>061-072>074-084-282100-
   CENTRAL IOWA

CITY           SKY/WX    TMP DP  RH WIND       PRES   REMARKS
AMES           PTSUNNY   31  24  75 E9        29.82F WCI  23
ANKENY *       SUNNY     41  28  60 S8        29.80F
CHARITON *     SUNNY     45  32  61 S14       29.80F
DES MOINES     MOSUNNY   41  28  60 S7        29.80F
GRINNELL*      PTSUNNY   32  27  80 E10       29.84F WCI  24
KNOXVILLE *    SUNNY     43  28  56 S13       29.81S
MARSHALLTOWN   MOSUNNY   29  23  78 SE9       29.83F WCI  20
PELLA *        PTSUNNY   45  30  57 S8        29.84F
PERRY *          N/A     39  32  75 S8        29.77F WCI  34
$$

IAZ004>006-015-016-023>025-035-036-282100-
   NORTH CENTRAL IOWA

CITY           SKY/WX    TMP DP  RH WIND       PRES   REMARKS
ALGONA *       SUNNY     27  23  86 SE10      29.78F WCI  17
CLARION *      SUNNY     27  25  93 SE14      29.80F WCI  15
ESTHERVILLE    MOSUNNY   24  21  88 SE12      29.75F WCI  13
FORT DODGE *   MOSUNNY   30  25  80 E10       29.79F WCI  21
MASON CITY     PTSUNNY   24  20  84 SE13      29.82F WCI  12
FOREST CITY *    N/A     28  23  80 SE12      29.80F WCI  18
IOWA FALLS *     N/A     28  23  80 E12       29.83F WCI  18
$$

IAZ007>011-017>019-026>030-037>042-050>054-066-282100-
   NORTHEAST IOWA

CITY           SKY/WX    TMP DP  RH WIND       PRES   REMARKS
CEDAR RAPIDS   PTSUNNY   30  24  78 SE7       29.89F WCI  23
CHARLES CITY * MOSUNNY   27  21  80 SE14      29.84F WCI  15
CLINTON *      CLOUDY    30  25  80 SE8       29.97S WCI  23
DECORAH *      SUNNY     25  19  80 SE9       29.87F WCI  15
DUBUQUE        CLOUDY    27  21  78 S12       29.91F WCI  17
MONTICELLO *   SUNNY     30  25  80 SE13      29.91F WCI  20
OELWEIN *      PTSUNNY   30  23  74 SE10      29.89S WCI  21
WATERLOO       MOSUNNY   30  23  75 SE10      29.87F WCI  21
$$

IAZ064-065-067-068-078-282100-
   EAST CENTRAL IOWA

CITY           SKY/WX    TMP DP  RH WIND       PRES   REMARKS
DAVENPORT      CLOUDY    33  24  69 S9        29.93F WCI  25
IOWA CITY      PTSUNNY   31  25  78 E8        29.91F WCI  23
MT. PLEASANT * PTSUNNY   37  28  70 SE8       29.89F WCI  31
MUSCATINE *    SUNNY     34  27  75 CALM      29.92F
QUAD CITIES    CLOUDY    34  25  69 S9        29.92F WCI  27
$$

IAZ062-063-075>077-085>089-095>099-282100-
   SOUTHEAST IOWA

CITY           SKY/WX    TMP DP  RH WIND       PRES   REMARKS
BURLINGTON     MOSUNNY   39  30  70 S13       29.90F WCI  31
FAIRFIELD *    SUNNY     39  28  65 S10       29.86F WCI  32
FORT MADISON * SUNNY     39  34  81 SE7       29.90F WCI  34
KEOKUK *       SUNNY     45  32  61 S12G17    29.89F
OSKALOOSA *      N/A     39  30  70 S9        29.85F WCI  33
CENTERVILLE *    N/A     46  32  57 S10       29.84F
OTTUMWA        PTSUNNY   39  29  67 S13       29.84F WCI  31
WASHINGTON *   SUNNY     36  32  87 SE9       29.88F WCI  29
$$

ABBREVIATIONS USED IN REMARKS
   TC - TEMPERATURES IN CELSIUS
  WCI - WIND CHILL INDEX
   HX - HEAT INDEX
  VSB - VISIBILITY
$$




USA.gov is the U.S. government's official web portal to all federal, state and local government web resources and services.